Regional Weather Roundup
Issued by NWS Columbia, SC

Home | Current Version | Previous Version | Text Only | Print | Product List | Glossary On
Versions: 1 2 3 4 5 6 7 8 9 10 11 12 13 14 15 16 17 18 19 20 21 22 23 24 25 26 27 28 29 30 31 32 33 34 35 36 37 38 39 40 41 42 43 44 45 46 47 48 49 50
000
ASUS42 KCAE 271210
RWRCAE
REGIONAL WEATHER ROUNDUP
NATIONAL WEATHER SERVICE COLUMBIA SC
800 AM EDT MON JUN 27 2016

NOTE: "FAIR" INDICATES FEW OR NO CLOUDS BELOW 12,000 FEET WITH NO
SIGNIFICANT WEATHER AND/OR OBSTRUCTIONS TO VISIBILITY.

NOT ALL STATIONS ARE QUALITY CONTROLLED BY THE NATIONAL
WEATHER SERVICE. USE DATA WITH CAUTION...ESPECIALLY
DEWPOINT OBSERVATIONS.

SCZ001>056-GAZ040-063>065-077-271300-
...UPSTATE SOUTH CAROLINA...

CITY           SKY/WX    TMP DP  RH WIND       PRES   REMARKS
ANDERSON       SUNNY     76  68  76 E6        30.12S
6HR MIN TEMP:  74; 6HR MAX TEMP:  79;

LIBERTY        SUNNY     76  67  75 E5        30.13S
6HR MIN TEMP:  71; 6HR MAX TEMP:  77;

SPARTANBURG    PTSUNNY   73  64  73 CALM      30.14R
CLEMSON        MOSUNNY   79  68  69 E3        30.14S
6HR MIN TEMP:  77; 6HR MAX TEMP:  79;

GREENVILLE     PTSUNNY   76  67  73 CALM      30.15S
6HR MIN TEMP:  74; 6HR MAX TEMP:  80;

GREENWOOD      SUNNY     76  69  79 SE6       30.14R
6HR MIN TEMP:  72; 6HR MAX TEMP:  76;

GREER          PTSUNNY   75  67  76 CALM      30.13S
6HR MIN TEMP:  72; 6HR MAX TEMP:  76;

ROCK HILL      MOSUNNY   72  66  81 CALM      30.14S
6HR MIN TEMP:  67; 6HR MAX TEMP:  72;

CHESTER        MOSUNNY   70  64  83 CALM      30.14S
LAURENS        MOSUNNY   72  70  94 S3        30.13S


...CENTRAL SOUTH CAROLINA...

CITY           SKY/WX    TMP DP  RH WIND       PRES   REMARKS
COLUMBIA APT   MOSUNNY   74  69  85 CALM      30.11S
6HR MIN TEMP:  71; 6HR MAX TEMP:  77;

COLUMBIA OWENS SUNNY     76  70  82 CALM      30.12S
6HR MIN TEMP:  71; 6HR MAX TEMP:  76;

MCENTIRE ANGB  MOSUNNY   72  72  98 CALM      30.12R
6HR MIN TEMP:  66; 6HR MAX TEMP:  72;

ORANGEBURG     SUNNY     76  71  85 CALM      30.11S
6HR MIN TEMP:  69; 6HR MAX TEMP:  76;

SUMTER SHAW    SUNNY     75  70  84 CALM      30.10R
6HR MIN TEMP:  69; 6HR MAX TEMP:  75;

NEWBERRY       SUNNY     73  70  88 S3        30.16R
AIKEN          FAIR      73  70  88 S3        30.16R
BARNWELL       FAIR      75  73  94 CALM      30.12S
MANNING        FAIR      72  70  94 CALM      30.11S
CAMDEN         FAIR      73  70  88 CALM      30.12S
LANCASTER      MOSUNNY   72  72 100 CALM      30.14R
WINNSBORO      SUNNY     73  70  88 SW3       30.13R


...EASTERN AND COASTAL SOUTH CAROLINA...

CITY           SKY/WX    TMP DP  RH WIND       PRES   REMARKS
MYRTLE BEACH   PTSUNNY   79  68  69 NE7       30.12R
N MYRTLE BCH   MOSUNNY   78  74  87 E6        30.10S
6HR MIN TEMP:  73; 6HR MAX TEMP:  78;

CONWAY         FAIR      73  72  94 NE5       30.11R FOG
MARION         CLOUDY    72  70  94 E3        30.12S FOG
HARTSVILLE     FAIR      73  70  88 CALM      30.12R
FLORENCE       CLOUDY    73  70  90 NE3       30.12S FOG
6HR MIN TEMP:  70; 6HR MAX TEMP:  73;

DARLINGTON     SUNNY     73  69  87 E3        30.12F
6HR MIN TEMP:  68; 6HR MAX TEMP:  73;

CHARLESTON APT MOSUNNY   77  72  84 N8        30.10R
6HR MIN TEMP:  71; 6HR MAX TEMP:  77;

MOUNT PLEASANT PTSUNNY   73  73 100 CALM      30.10R FOG
WALTERBORO     SUNNY     77  77 100 CALM      30.11S
BEAUFORT       MOSUNNY   77  73  87 NE7       30.10S
6HR MIN TEMP:  72; 6HR MAX TEMP:  78;



...EASTERN GEORGIA...

CITY           SKY/WX    TMP DP  RH WIND       PRES   REMARKS
AUGUSTA BUSH F SUNNY     76  74  93 SE3       30.10S
6HR MIN TEMP:  73; 6HR MAX TEMP:  76;

AUGUSTA DANIEL SUNNY     78  72  81 SE7       30.12S
6HR MIN TEMP:  75; 6HR MAX TEMP:  79;

THOMSON        SUNNY     78  74  87 S3        30.16S
6HR MIN TEMP:  74; 6HR MAX TEMP:  78;

WASHINGTON     FAIR      75  73  94 CALM      30.12R
CLAXTON        FAIR      76  76 100 CALM      30.10S FOG
6HR MIN TEMP:  74; 6HR MAX TEMP:  76;

SYLVANIA       SUNNY     79  75  89 CALM      30.12R
6HR MIN TEMP:  76; 6HR MAX TEMP:  79;

STATESBORO     SUNNY     79  76  90 CALM      30.10S
6HR MIN TEMP:  74; 6HR MAX TEMP:  79;

SAVANNAH       MOSUNNY   77  73  87 N5        30.10S
6HR MIN TEMP:  73; 6HR MAX TEMP:  77;



...SOUTHERN NORTH CAROLINA...

CITY           SKY/WX    TMP DP  RH WIND       PRES   REMARKS
CHARLOTTE      PTSUNNY   73  64  73 CALM      30.14S
6HR MIN TEMP:  70; 6HR MAX TEMP:  77;

MONROE         PTSUNNY   70  64  81 CALM      30.12F
6HR MIN TEMP:  65; 6HR MAX TEMP:  70;

WADESBORO      CLOUDY    69  62  80 CALM      30.12S
6HR MIN TEMP:  63; 6HR MAX TEMP:  69;

ROCKINGHAM     SUNNY     71  67  89 CALM      30.12F
6HR MIN TEMP:  64; 6HR MAX TEMP:  71;

RUTHERFORDTON  PTSUNNY   71  67  87 CALM      30.16S
6HR MIN TEMP:  69; 6HR MAX TEMP:  75;

ASHEVILLE      MOSUNNY   72  64  76 CALM      30.18F
6HR MIN TEMP:  68; 6HR MAX TEMP:  73;


$$



USA.gov is the U.S. government's official web portal to all federal, state and local government web resources and services.